STARLINK-2642 (48437 NORAD) Tracking and Keplerian Element Data

This shows tracking and keplerian element data for the satellite.

Feedback or suggestion? Click here.




ElementValue
Catalog48437
NameSTARLINK-2642
Epoch Orbit1465
Epoch Day215.25002315
Epoch Year2021
RAAN169.8966
Inclination53.0528
Eccentricity0.0001925
Argument of Perigee70.5079
Mean Anonmoly309.5006
Mean Motion15.04754423
Decay Rate0.00018456
L11 48437U 21040K 21215.25002315 .00018456 00000-0 13111-2 0 9995
L22 48437 53.0528 169.8966 0001925 70.5079 309.5006 15.04754423 14655

Live tracking and technical data element details for STARLINK-2642 (NORAD 48437). STARLINK-2642 can be tracked NOW for your location showing map with azimuth and elevation plus other details from your city location.

Track the satellite on the map from your city or location and see movement details for azimuth, elevation, latitude, longitude, range, height, and movement on the map or in text.







IsCatalogInMostPopularTable: catalog: 48437, numindb: 26
Update: records affected: 1



GetName: 48437 STARLINK-2642

Hit Count: updated at: Tue, 03 Aug 2021 22:32:58 GMT